Hourly Weather Gabrovo

Today, 25 October, Sunday

Time Temperature Precipitation Wind Pressure Humidity
00:00 +13°C° 0 mm 0 mps 700 mmHg 53%
01:00 +13°C° 0 mm 0 mps 700 mmHg 54%
02:00 +13°C° 0 mm 0 mps 700 mmHg 55%
03:00 +12°C° 0 mm 0 mps 700 mmHg 56%
04:00 +12°C° 0 mm 0 mps 700 mmHg 57%
05:00 +12°C° 0 mm 0 mps 699 mmHg 58%
06:00 +12°C° 0 mm 0 mps 700 mmHg 58%
07:00 +13°C° 0 mm 0 mps 700 mmHg 57%
08:00 +13°C° 0 mm 0 mps 700 mmHg 57%
09:00 +14°C° 0 mm 0 mps 700 mmHg 53%
10:00 +16°C° 0 mm 1 mps 700 mmHg 49%
11:00 +18°C° 0 mm 1 mps 700 mmHg 45%
12:00 +19°C° 0 mm 1 mps 700 mmHg 45%
13:00 +19°C° 0 mm 1 mps 700 mmHg 44%
14:00 +19°C° 0 mm 1 mps 700 mmHg 43%
15:00 +18°C° 0 mm 1 mps 700 mmHg 49%
16:00 +16°C° 0 mm 2 mps 700 mmHg 54%
17:00 +15°C° 0 mm 2 mps 699 mmHg 59%
18:00 +14°C° 0.3 mm 2 mps 699 mmHg 65%
19:00 +13°C° 0.3 mm 1 mps 699 mmHg 70%
20:00 +13°C° 0.3 mm 1 mps 700 mmHg 76%
21:00 +12°C° 0 mm 1 mps 699 mmHg 77%
22:00 +12°C° 0 mm 1 mps 699 mmHg 78%
23:00 +11°C° 0 mm 1 mps 699 mmHg 79%

Tomorrow, 26 October, Monday

Time Temperature Precipitation Wind Pressure Humidity
00:00 +11°C° 0.3 mm 1 mps 699 mmHg 78%
01:00 +12°C° 0.3 mm 1 mps 699 mmHg 77%
02:00 +12°C° 0.3 mm 1 mps 700 mmHg 76%
03:00 +11°C° 0.1 mm 1 mps 700 mmHg 78%
04:00 +11°C° 0.1 mm 1 mps 700 mmHg 80%
05:00 +10°C° 0.1 mm 1 mps 699 mmHg 82%
06:00 +11°C° 0 mm 1 mps 700 mmHg 80%
07:00 +11°C° 0 mm 1 mps 700 mmHg 79%
08:00 +12°C° 0 mm 1 mps 700 mmHg 77%
09:00 +13°C° 0 mm 1 mps 700 mmHg 70%
10:00 +15°C° 0 mm 1 mps 701 mmHg 62%
11:00 +18°C° 0 mm 1 mps 701 mmHg 54%
12:00 +19°C° 0 mm 1 mps 701 mmHg 52%
13:00 +20°C° 0 mm 1 mps 701 mmHg 49%
14:00 +20°C° 0 mm 1 mps 701 mmHg 46%
15:00 +17°C° 0 mm 0 mps 701 mmHg 50%
16:00 +16°C° 0 mm 0 mps 700 mmHg 54%
17:00 +15°C° 0 mm 0 mps 700 mmHg 58%
18:00 +14°C° 0 mm 0 mps 700 mmHg 61%
19:00 +13°C° 0 mm 0 mps 700 mmHg 64%
20:00 +12°C° 0 mm 0 mps 701 mmHg 67%
21:00 +13°C° 0 mm 1 mps 701 mmHg 68%
22:00 +13°C° 0 mm 1 mps 701 mmHg 69%
23:00 +12°C° 0 mm 1 mps 701 mmHg 70%

Day after tomorrow, 27 October, Tuesday

Time Temperature Precipitation Wind Pressure Humidity
00:00 +12°C° 0 mm 1 mps 701 mmHg 71%
01:00 +12°C° 0 mm 1 mps 700 mmHg 71%
02:00 +12°C° 0 mm 1 mps 700 mmHg 72%
03:00 +11°C° 0 mm 1 mps 700 mmHg 73%
04:00 +10°C° 0 mm 0 mps 700 mmHg 74%
05:00 +10°C° 0 mm 0 mps 700 mmHg 74%
06:00 +10°C° 0 mm 0 mps 700 mmHg 73%
07:00 +11°C° 0 mm 0 mps 701 mmHg 72%
08:00 +11°C° 0 mm 0 mps 701 mmHg 70%
09:00 +14°C° 0 mm 1 mps 701 mmHg 64%
10:00 +16°C° 0 mm 1 mps 701 mmHg 58%
11:00 +17°C° 0 mm 2 mps 702 mmHg 52%
12:00 +18°C° 0 mm 2 mps 701 mmHg 50%
13:00 +19°C° 0 mm 2 mps 701 mmHg 47%
14:00 +19°C° 0 mm 2 mps 701 mmHg 45%
15:00 +18°C° 0 mm 2 mps 700 mmHg 48%
16:00 +17°C° 0 mm 2 mps 700 mmHg 52%
17:00 +16°C° 0 mm 2 mps 700 mmHg 56%
18:00 +15°C° 0 mm 2 mps 700 mmHg 59%
19:00 +14°C° 0 mm 2 mps 700 mmHg 62%
20:00 +13°C° 0 mm 1 mps 700 mmHg 65%
21:00 +13°C° 0 mm 1 mps 700 mmHg 70%
22:00 +12°C° 0 mm 1 mps 700 mmHg 76%
23:00 +12°C° 0 mm 1 mps 700 mmHg 81%

28 October, Wednesday

Time Temperature Precipitation Wind Pressure Humidity
00:00 +12°C° 0 mm 1 mps 699 mmHg 84%
01:00 +11°C° 0 mm 1 mps 699 mmHg 87%
02:00 +11°C° 0 mm 1 mps 699 mmHg 90%
03:00 +11°C° 0 mm 1 mps 699 mmHg 91%
04:00 +11°C° 0 mm 1 mps 699 mmHg 92%
05:00 +10°C° 0 mm 1 mps 699 mmHg 93%
06:00 +11°C° 0 mm 1 mps 700 mmHg 91%
07:00 +11°C° 0 mm 1 mps 700 mmHg 90%
08:00 +12°C° 0 mm 1 mps 700 mmHg 88%
09:00 +13°C° 0 mm 1 mps 701 mmHg 81%
10:00 +15°C° 0 mm 1 mps 701 mmHg 74%
11:00 +18°C° 0 mm 1 mps 701 mmHg 67%
12:00 +18°C° 0.3 mm 1 mps 701 mmHg 64%
13:00 +19°C° 0.3 mm 1 mps 701 mmHg 61%
14:00 +19°C° 0.3 mm 1 mps 701 mmHg 57%
15:00 +18°C° 0.4 mm 1 mps 700 mmHg 62%
16:00 +16°C° 0.4 mm 1 mps 700 mmHg 67%
17:00 +15°C° 0.4 mm 1 mps 700 mmHg 73%
18:00 +15°C° 0.4 mm 1 mps 700 mmHg 75%
19:00 +14°C° 0.4 mm 1 mps 700 mmHg 77%
20:00 +13°C° 0.4 mm 1 mps 700 mmHg 80%
21:00 +13°C° 0.4 mm 1 mps 700 mmHg 81%
22:00 +13°C° 0.4 mm 1 mps 701 mmHg 81%
23:00 +13°C° 0.4 mm 1 mps 701 mmHg 82%

29 October, Thursday

Time Temperature Precipitation Wind Pressure Humidity
00:00 +13°C° 0.4 mm 1 mps 701 mmHg 83%
01:00 +13°C° 0.4 mm 1 mps 701 mmHg 85%
02:00 +12°C° 0.4 mm 1 mps 701 mmHg 86%
03:00 +12°C° 0.1 mm 1 mps 701 mmHg 86%
04:00 +12°C° 0.1 mm 1 mps 701 mmHg 86%
05:00 +12°C° 0.1 mm 1 mps 701 mmHg 86%
06:00 +12°C° 0 mm 1 mps 701 mmHg 85%
07:00 +12°C° 0 mm 1 mps 701 mmHg 84%
08:00 +12°C° 0 mm 1 mps 701 mmHg 84%
09:00 +13°C° 0 mm 1 mps 702 mmHg 79%
10:00 +14°C° 0 mm 1 mps 702 mmHg 74%
11:00 +15°C° 0 mm 1 mps 703 mmHg 70%
12:00 +16°C° 0.2 mm 1 mps 703 mmHg 67%
13:00 +18°C° 0.2 mm 1 mps 703 mmHg 64%
14:00 +18°C° 0.2 mm 1 mps 703 mmHg 61%
15:00 +16°C° 0.2 mm 1 mps 703 mmHg 65%
16:00 +15°C° 0.2 mm 1 mps 703 mmHg 69%
17:00 +15°C° 0.2 mm 1 mps 703 mmHg 74%
18:00 +14°C° 0.1 mm 1 mps 703 mmHg 77%
19:00 +13°C° 0.1 mm 1 mps 703 mmHg 81%
20:00 +12°C° 0.1 mm 1 mps 704 mmHg 84%
21:00 +12°C° 0 mm 1 mps 704 mmHg 84%
22:00 +12°C° 0 mm 1 mps 704 mmHg 84%
23:00 +12°C° 0 mm 1 mps 705 mmHg 83%

30 October, Friday

Time Temperature Precipitation Wind Pressure Humidity
00:00 +12°C° 0 mm 1 mps 705 mmHg 84%
01:00 +11°C° 0 mm 1 mps 705 mmHg 84%
02:00 +11°C° 0 mm 1 mps 705 mmHg 85%
03:00 +11°C° 0 mm 1 mps 705 mmHg 85%
04:00 +11°C° 0 mm 1 mps 705 mmHg 86%
05:00 +10°C° 0 mm 1 mps 706 mmHg 86%
06:00 +11°C° 0 mm 1 mps 706 mmHg 85%
07:00 +11°C° 0 mm 1 mps 706 mmHg 83%
08:00 +11°C° 0 mm 1 mps 707 mmHg 82%
09:00 +13°C° 0 mm 1 mps 707 mmHg 74%
10:00 +15°C° 0 mm 1 mps 707 mmHg 66%
11:00 +16°C° 0 mm 1 mps 708 mmHg 58%
12:00 +18°C° 0 mm 1 mps 708 mmHg 55%
13:00 +19°C° 0 mm 1 mps 708 mmHg 52%
14:00 +19°C° 0 mm 1 mps 708 mmHg 49%
15:00 +18°C° 0 mm 1 mps 708 mmHg 54%
16:00 +16°C° 0 mm 1 mps 707 mmHg 59%
17:00 +15°C° 0 mm 1 mps 707 mmHg 64%
18:00 +14°C° 0 mm 1 mps 707 mmHg 68%
19:00 +13°C° 0 mm 1 mps 707 mmHg 71%
20:00 +12°C° 0 mm 1 mps 707 mmHg 75%
21:00 +12°C° 0 mm 1 mps 707 mmHg 75%
22:00 +12°C° 0 mm 1 mps 708 mmHg 76%
23:00 +11°C° 0 mm 1 mps 708 mmHg 77%
Show more